CW7858 Weather Reports


Display with metric or nautical units.
time (UTC)temp
F
wind
direction
speed
MPH
gust
MPH
rain 1hr
in
rain 24hr
in
rain mn
in
humidity
%
barometer
mb
20190421063248 56 305 1.0 3.0 0.00 0.00 0.00 78 1008.9
20190421062234 56 239 1.0 2.0 0.00 0.00 0.00 78 1009.0
20190421061248 56 232 0.0 5.0 0.00 0.00 0.00 78 1009.0
20190421060254 57 230 0.0 2.0 0.00 0.00 0.00 76 1008.9
20190421055241 57 200 1.0 3.0 0.00 0.00 0.00 73 1008.8
20190421054235 57 343 1.0 3.0 0.00 0.00 0.00 72 1008.8
20190421053246 57 4 0.0 2.0 0.00 0.00 0.00 72 1008.7
20190421052235 57 48 1.0 3.0 0.00 0.00 0.00 72 1008.7
20190421051255 57 30 0.0 3.0 0.00 0.00 0.00 71 1008.7
20190421050243 57 337 2.0 7.0 0.00 0.00 0.00 71 1008.7
20190421045239 57 45 1.0 5.0 0.00 0.00 0.00 71 1008.9
20190421044233 57 360 1.0 3.0 0.00 0.00 0.00 71 1008.9
20190421043230 57 360 1.0 3.0 0.00 0.00 0.00 71 1009.3
20190421042238 57 346 2.0 4.0 0.00 0.00 0.00 71 1009.5
20190421041237 57 360 1.0 7.0 0.00 0.00 0.00 70 1009.5
20190421040232 57 18 2.0 6.0 0.00 0.00 0.00 71 1009.5
20190421035243 57 16 1.0 4.0 0.00 0.00 0.00 71 1009.7
20190421034241 57 37 1.0 5.0 0.00 0.00 0.00 71 1009.7
20190421033238 57 13 2.0 6.0 0.00 0.00 0.00 72 1009.8
20190421032244 57 335 2.0 6.0 0.00 0.00 0.00 72 1010.0
20190421031246 57 354 4.0 6.0 0.00 0.00 0.00 72 1010.0
20190421030242 57 3 4.0 7.0 0.00 0.00 0.00 73 1010.2
20190421025238 57 360 2.0 7.0 0.00 0.00 0.00 74 1010.4
20190421024234 57 357 3.0 6.0 0.00 0.00 0.00 75 1010.4
20190421023232 57 10 2.0 7.0 0.00 0.00 0.00 77 1010.6
20190421022254 57 357 4.0 6.0 0.00 0.00 0.00 79 1010.7
20190421021240 57 8 1.0 6.0 0.00 0.00 0.00 80 1010.7
20190421020242 57 349 4.0 7.0 0.00 0.00 0.00 82 1010.5
20190421015255 57 357 4.0 8.0 0.00 0.00 0.00 86 1010.8
20190421014246 57 3 3.0 7.0 0.00 0.00 0.00 89 1010.8
20190421013238 56 329 3.0 6.0 0.00 0.00 0.00 91 1010.9
20190421012243 57 322 0.0 2.0 0.00 0.00 0.00 92 1011.2
20190421011237 57 292 0.0 1.0 0.00 0.00 0.00 93 1011.2
20190421010245 57 313 2.0 5.0 0.00 2.43 0.00 94 1011.3
20190421005241 57 248 1.0 2.0 0.00 2.43 0.00 94 1011.4
20190421004236 57 248 1.0 2.0 0.00 2.43 0.00 94 1011.4
20190421003232 57 243 1.0 2.0 0.00 2.43 0.00 94 1011.4
20190421002244 57 247 1.0 2.0 0.00 2.43 0.00 94 1011.3
20190421001240 57 342 0.0 1.0 0.00 2.43 0.00 95 1011.3
20190421000237 57 342 0.0 1.0 0.00 2.79 0.00 94 1011.3
20190420235235 57 342 0.0 3.0 0.00 2.79 0.00 95 1011.4
20190420234246 57 234 1.0 2.0 0.00 2.79 0.00 95 1011.4
20190420233242 57 234 0.0 1.0 0.00 2.79 0.00 95 1011.8
20190420232247 57 234 0.0 0.0 0.00 2.79 0.00 95 1012.2
20190420231244 58 234 0.0 0.0 0.00 2.79 0.00 95 1012.2
20190420230240 58 234 0.0 1.0 0.00 3.24 0.00 95 1012.4
20190420225236 58 234 0.0 3.0 0.00 3.24 0.00 95 1012.6
20190420224232 58 246 0.0 3.0 0.00 3.24 0.00 1012.6
20190420223228 58 240 1.0 2.0 0.00 3.24 0.00 95 1012.8
20190420222251 59 240 0.0 0.0 0.00 3.24 0.00 95 1012.9
20190420221239 59 240 0.0 0.0 0.00 3.24 0.00 95 1012.9
20190420220241 59 240 0.0 2.0 0.00 3.58 0.00 95 1013.2
20190420215241 59 240 0.0 2.0 0.00 3.58 3.32 1013.3
20190420214238 59 240 0.0 2.0 0.00 3.58 3.32 100 1013.3
20190420213234 59 240 0.0 1.0 0.00 3.58 3.32 1013.3
20190420212236 59 240 0.0 2.0 0.00 3.58 3.32 1013.4
20190420211233 59 240 0.0 3.0 0.00 3.58 3.32 1013.4
20190420210249 59 240 0.0 1.0 0.00 3.64 3.32 1013.5
20190420205245 59 240 0.0 2.0 0.00 3.64 3.32 100 1013.5
20190420204240 59 240 1.0 2.0 0.00 3.64 3.32 1013.5
20190420203230 59 240 1.0 2.0 0.00 3.64 3.32 100 1013.6
20190420202256 59 240 0.0 1.0 0.00 3.64 3.32 100 1013.6
20190420201245 59 240 0.0 1.0 0.00 3.64 3.32 100 1013.6
20190420200240 59 240 0.0 1.0 0.00 3.64 3.32 100 1013.5
20190420195236 59 240 0.0 1.0 0.00 3.64 3.32 100 1013.5
20190420194259 59 240 1.0 3.0 0.00 3.64 3.32 100 1013.5
20190420193249 59 240 0.0 2.0 0.00 3.64 3.32 100 1013.3
20190420192237 60 240 0.0 2.0 0.00 3.64 3.32 100 1013.1
20190420191234 60 240 0.0 1.0 0.00 3.64 3.32 100 1013.1
20190420190256 60 240 0.0 1.0 0.00 3.64 3.32 100 1012.9
20190420185245 59 240 0.0 2.0 0.00 3.64 3.32 100 1012.9
20190420184241 59 254 1.0 2.0 0.00 3.64 3.32 100 1012.9
20190420183240 59 261 0.0 1.0 0.00 3.64 3.32 100 1012.8
20190420182257 59 261 1.0 2.0 0.00 3.64 3.32 100 1012.7
20190420181245 59 261 0.0 2.0 0.00 3.64 3.32 100 1012.7
20190420180244 59 261 0.0 3.0 0.00 3.65 3.32 100 1012.6
20190420175236 59 277 1.0 3.0 0.00 3.65 3.32 100 1012.5
20190420174235 59 277 1.0 5.0 0.01 3.65 3.32 100 1012.5
20190420173234 59 278 2.0 6.0 0.01 3.65 3.32 100 1012.6
20190420172241 59 271 3.0 5.0 0.02 3.65 3.32 100 1012.6
20190420171234 59 277 2.0 5.0 0.02 3.65 3.32 100 1012.6
20190420170258 59 264 0.0 3.0 0.02 3.65 3.32 100 1012.6
20190420165246 59 264 1.0 2.0 0.02 3.65 3.32 100 1012.6
20190420164242 59 264 2.0 3.0 0.01 3.64 3.31 100 1012.6
20190420163235 59 284 1.0 3.0 0.01 3.64 3.31 100 1012.6
20190420162246 59 244 1.0 3.0 0.00 3.63 3.30 100 1012.7
20190420161246 59 271 2.0 5.0 0.00 3.63 3.30 100 1012.7
20190420160243 59 316 0.0 5.0 0.00 3.63 3.30 100 1012.6
20190420155241 59 347 1.0 3.0 0.01 3.63 3.30 100 1012.6
20190420154237 59 37 0.0 3.0 0.01 3.63 3.30 100 1012.6
20190420153234 58 54 0.0 3.0 0.02 3.63 3.30 100 1012.6
20190420152239 58 92 1.0 2.0 0.02 3.63 3.30 100 1012.5
20190420151235 58 92 1.0 3.0 0.03 3.63 3.30 100 1012.5
20190420150259 58 79 2.0 7.0 0.03 3.66 3.30 100 1012.5
20190420145247 58 97 3.0 10.0 0.03 3.65 3.29 100 1012.5
20190420144248 58 100 4.0 9.0 0.03 3.65 3.29 100 1012.5
20190420143253 58 71 3.0 8.0 0.03 3.65 3.29 100 1012.5
20190420142248 58 119 2.0 6.0 0.03 3.64 3.28 100 1012.4
20190420141242 58 102 3.0 5.0 0.02 3.63 3.27 100 1012.4
20190420140241 58 104 1.0 4.0 0.03 3.64 3.27 100 1012.4
20190420135246 58 11 0.0 5.0 0.02 3.63 3.26 100 1012.4
20190420134242 58 25 1.0 7.0 0.03 3.63 3.26 100 1012.4
20190420133242 58 90 3.0 6.0 0.04 3.63 3.26 100 1012.3
20190420132259 58 82 0.0 4.0 0.05 3.62 3.25 100 1012.1
20190420131255 58 90 1.0 5.0 0.06 3.62 3.25 100 1012.1
20190420130243 58 56 1.0 6.0 0.07 3.62 3.24 100 1012.1
20190420125243 58 7 1.0 6.0 0.08 3.62 3.24 100 1012.2
20190420124240 58 32 3.0 8.0 0.08 3.61 3.23 100 1012.2
20190420123237 58 85 2.0 7.0 0.09 3.60 3.22 100 1012.3
20190420122245 58 42 2.0 9.0 0.09 3.58 3.20 100 1012.2
20190420121238 58 134 3.0 7.0 0.10 3.57 3.19 100 1012.2
20190420120258 58 20 4.0 10.0 0.10 3.57 3.17 100 1012.3
20190420115254 58 58 3.0 6.0 0.10 3.56 3.16 100 1012.2
20190420114245 58 329 2.0 6.0 0.10 3.55 3.15 100 1012.2
20190420113249 58 41 2.0 7.0 0.09 3.53 3.13 100 1012.2
20190420112237 58 32 2.0 5.0 0.09 3.51 3.11 100 1012.2
20190420111233 58 41 0.0 5.0 0.09 3.49 3.09 100 1012.2
20190420110249 58 61 1.0 2.0 0.09 3.53 3.07 100 1012.2
20190420105245 58 61 0.0 2.0 0.09 3.52 3.06 100 1012.1
20190420104245 58 61 0.0 2.0 0.10 3.51 3.05 100 1012.1
20190420103238 58 64 1.0 6.0 0.11 3.50 3.04 100 1012.2
20190420102245 58 93 3.0 8.0 0.12 3.48 3.02 100 1012.2
20190420101240 58 55 5.0 8.0 0.12 3.46 3.00 100 1012.2
20190420100241 58 76 1.0 3.0 0.12 3.50 2.98 100 1012.1
20190420095259 58 76 0.0 5.0 0.12 3.49 2.97 100 1012.0
20190420094247 58 92 2.0 11.0 0.12 3.47 2.95 100 1012.0
20190420093241 58 58 5.0 10.0 0.12 3.45 2.93 100 1011.9
20190420092230 58 72 5.0 12.0 0.10 3.42 2.90 100 1011.9
20190420091246 58 88 5.0 16.0 0.09 3.40 2.88 100 1011.9
20190420090246 58 62 5.0 12.0 0.09 3.45 2.86 100 1011.8
20190420085241 58 37 4.0 11.0 0.11 3.44 2.85 100 1011.7
20190420084234 58 83 8.0 17.0 0.11 3.43 2.84 94 1011.7
20190420083244 58 82 7.0 17.0 0.09 3.40 2.81 93 1011.5
20190420082245 58 89 10.0 17.0 0.08 3.39 2.80 93 1011.4
20190420081239 58 102 11.0 17.0 0.08 3.38 2.79 93 1011.4
20190420080235 58 102 5.0 19.0 0.06 3.45 2.77 93 1011.4
20190420075249 58 65 11.0 21.0 0.04 3.42 2.74 93 1011.3
20190420074243 58 69 8.0 16.0 0.06 3.41 2.73 93 1011.3
20190420073243 58 40 11.0 19.0 0.08 3.40 2.72 93 1011.2
20190420072244 58 51 11.0 17.0 0.09 3.40 2.72 93 1011.3
20190420071239 57 66 10.0 16.0 0.10 3.39 2.71 93 1011.3
20190420070259 57 10 6.0 13.0 0.11 3.52 2.71 93 1011.3
20190420065256 58 28 6.0 17.0 0.10 3.51 2.70 92 1011.3
20190420064248 58 59 11.0 18.0 0.08 3.48 2.67 92 1011.3